Regional Weather Roundup
Issued by NWS Cleveland, OH

Home | Current Version | Previous Version | Text Only | Print | Product List | Glossary On
Versions: 1 2 3 4 5 6 7 8 9 10 11 12 13 14 15 16 17 18 19 20 21 22 23 24 25 26 27 28 29 30 31 32 33 34 35 36 37 38 39 40 41 42 43 44 45 46 47 48 49 50
000
ASUS41 KCLE 230312
RWRCLE
OHIO REGIONAL WEATHER ROUNDUP
NATIONAL WEATHER SERVICE WILMINGTON, OH
1100 PM EDT SUN OCT 22 2017

NOTE: "FAIR" INDICATES FEW OR NO CLOUDS BELOW 12,000 FEET WITH NO
SIGNIFICANT WEATHER AND/OR OBSTRUCTIONS TO VISIBILITY.

OHZ001>008-015>018-024>027-034-035-043-044-230400-
   NORTHWEST OHIO

CITY           SKY/WX    TMP DP  RH WIND       PRES   REMARKS
DEFIANCE       FAIR      68  49  50 S8        30.03F
FINDLAY        FAIR      62  47  57 SE8       30.05F
TOLEDO EXPRESS FAIR      67  50  54 S6        30.04F
TOLEDO EXEC    FAIR      64  50  60 S9        30.06F
LIMA           FAIR      63  49  60 S9        30.06F
$$

OHZ009>014-019>023-028>033-038-089-230400-
   NORTHEAST OHIO

CITY           SKY/WX    TMP DP  RH WIND       PRES   REMARKS
CLE-HOPKINS    MOCLDY    64  49  57 SE6       30.12F
CLE-LAKEFRONT  FAIR      68  48  48 S13       30.09F
CUY CO. ARPT   MOCLDY    68  52  56 S9        30.12F
LORAIN-ELYRIA  NOT AVBL
ASHTABULA      FAIR      66  51  58 S8        30.14F
AKRON-CANTON   CLOUDY    63  48  58 SE6       30.14S
WOOSTER        FAIR      50  48  93 CALM      30.13S
MANSFIELD      FAIR      63  50  62 SE8       30.11F
YOUNGSTOWN     CLOUDY    64  50  60 SE9       30.15F
$$

OHZ042-051>053-060>062-070>072-077>081-230400-
  SOUTHWEST OHIO

CITY           SKY/WX    TMP DP  RH WIND       PRES   REMARKS
CINC-COVINGTON CLOUDY    67  53  61 SE10      30.04F
CINC-LUNKEN    FAIR      61  55  81 CALM      30.05F
HAMILTON       FAIR      66  52  60 E5        30.05F
DAYTON         CLOUDY    63  50  62 SE10      30.07F
WRIGHT-PAT AFB FAIR      64  47  54 SE8       30.06F
DAYTON GENERAL FAIR      65  48  54 SE12      30.05F
WILMINGTON     FAIR      62  51  67 SE6       30.07F
$$

OHZ036-037-039>041-045>050-054>059-063>069-073>076-082>088-230400-
  CENTRAL AND SOUTHEAST OHIO

CITY           SKY/WX    TMP DP  RH WIND       PRES   REMARKS
COLUMBUS       CLOUDY    64  52  64 SE7       30.10F
OSU AIRPORT    FAIR      64  52  64 SE7       30.10F
BOLTON FIELD   FAIR      60  49  67 SE3       30.10F
RICKENBACK AFB FAIR      59  51  74 SE6       30.08F
NEWARK         FAIR      53  49  86 CALM      30.11F
MARION         FAIR      63  49  60 S8        30.09F
LANCASTER      FAIR      53  51  93 S3        30.11F
ZANESVILLE     FAIR      57  50  77 CALM      30.13S
NEW PHILLY     FAIR      56  51  84 SE7       30.14F
$$




USA.gov is the U.S. government's official web portal to all federal, state and local government web resources and services.